Location: ?????
(37.7324°N, 23.9257°E)
Time: 21:46:08
(UTC+00:00)

NOSS 3-4 (C) - Pass Details

Date: 29 November 2020
Orbit: 879 x 1333 km, 63.4° (Epoch: 31 December)

Event Time Altitude Azimuth Distance (km) Brightness Sun altitude
Exits shadow 04:00:55 21° 301° (WNW) 1,924 4.5 -15.2°
Maximum altitude 04:02:13 23° 320° (NW) 1,872 4.5 -15.0°
Drops below altitude 10° 04:07:01 10° 10° (N) 2,703 5.8 -14.1°
Sets 04:10:19 0° 25° (NNE) 3,727 6.7 -13.4°
